Regional Weather Roundup
Issued by NWS Midland/Odessa, TX

Skip options and go directly to product.
Home | Oldest Version | Previous Version | Current Version | All | Graphics & Text | Save Text | Print | Product List | Glossary On

Skip product version selection by date and time.   
340
ASUS44 KMAF 051810
RWRMAF
MIDLAND AREA WEATHER ROUNDUP
NATIONAL WEATHER SERVICE MIDLAND TX
1200 PM CST THU MAR 05 2015

...IN SOUTHWEST TEXAS AND SOUTHEAST NEW MEXICO...

CITY           SKY/WX    TMP DP  RH WIND       PRES   REMARKS
ALPINE         CLOUDY    25  24  96 E3        30.56R
ANDREWS        FAIR      33  16  50 SE5       30.55F WCI  28
ARTESIA        CLOUDY    32  21  64 SE7       30.54S WCI  26
BIG SPRING     FAIR      38  13  36 E9        30.60F WCI  32
CARLSBAD       CLOUDY    36  22  56 VRB3      30.54S
DRYDEN           N/A     38  22  52 NE13      30.58S WCI  30
FORT STOCKTON  CLOUDY    31  24  75 N5        30.57F WCI  26
GUAD PASS      NOT AVBL
HOBBS          MOSUNNY   32  19  59 S3        30.53F
MARFA          PTSUNNY   34  25  69 NE13      30.48R WCI  25
MIDLAND AIRPK  FAIR      36  15  43 NE3       30.57F
MIDLAND INTL   FAIR      34  16  47 CALM      30.56F
ODESSA         FAIR      33  16  49 VRB5      30.57S WCI  29
PECOS          CLOUDY    33  26  75 CALM      30.60S
PRESIDIO       CLOUDY    42  25  51 NE9       30.51F WCI  36
SEMINOLE       FAIR      33  14  45 CALM      30.55F
SNYDER         FAIR      32  13  45 CALM      30.59S
WINK           FAIR      34  16  47 CALM      30.57S
$$
...OTHER STATIONS IN TEXAS...

CITY           SKY/WX    TMP DP  RH WIND       PRES   REMARKS
ABILENE        FAIR      32  18  56 N3        30.61S
AMARILLO         N/A     35  21  56 W14       30.46F WCI  26
AUSTIN         FAIR      42  23  46 N28G35    30.54S WCI  32
BROWNSVILLE    CLOUDY    43  36  76 N23G32    30.42S WCI  34
CORPUS CHRISTI CLOUDY    44  34  67 N26G35    30.47F WCI  35
DALLAS FTW     FAIR      31  17  56 N9        30.62S WCI  23
DEL RIO        FAIR      41  22  46 N12       30.62F WCI  34
EL PASO        MOSUNNY   39  22  50 NE3       30.46S
HOUSTON INT    CLOUDY    42  32  67 N28       30.46S WCI  32
LUBBOCK        FAIR      31  17  56 SW8       30.53S WCI  23
SAN ANGELO     FAIR      36  16  44 NE12      30.59F WCI  28
SAN ANTONIO    FAIR      43  22  43 N22G30    30.54R WCI  34
WACO           FAIR      35  23  61 N21       30.61R WCI  24
WICHITA FALLS  NOT AVBL
$$
...OTHER LOCATIONS IN NEW MEXICO...

CITY           SKY/WX    TMP DP  RH WIND       PRES   REMARKS
ALAMAGORDO     SUNNY     39  25  56 S9        30.46F WCI  33
ALBUQUERQUE    SUNNY     39  10  30 CALM      30.42S
CANNON AFB     SUNNY     32  20  63 W9G18     30.44F WCI  24
CLOVIS         SUNNY     34  21  60 W13       30.45F WCI  25
HOLLOMAN AFB   SUNNY     39  25  58 VRB7      30.45F WCI  34
ROSWELL        CLOUDY    32  20  61 VRB6      30.51F WCI  26
RUIDOSO        SUNNY     28  27  93 N6        30.39S WCI  22
SANTA FE       SUNNY     36   7  29 N15       30.37R WCI  27
TRUTH OR CONSE SUNNY     41  18  39 SE7       30.42S WCI  36
TUCUMCARI      MOSUNNY   34  24  67 W9        30.42F WCI  27
$$

USA.gov is the U.S. government's official web portal to all federal, state and local government web resources and services.